Location: La Tine
(46.4708°N, 7.0525°E)
Time: 15:19:10
(UTC+00:00)

Cosmos 1898 Rocket - Pass Details

Date: 18 September 2020
Orbit: 753 x 784 km, 74.0° (Epoch: 24 October)

Event Time Altitude Azimuth Distance (km) Brightness Sun altitude
Rises 18:23:41 0° 202° (SSW) 3,193 6.8 -8.8°
Reaches altitude 10° 18:26:01 10° 203° (SSW) 2,271 6.1 -9.2°
Maximum altitude 18:31:11 84° 292° (WNW) 764 3.6 -10.1°
Drops below altitude 10° 18:36:23 10° 21° (NNE) 2,292 5.9 -11.0°
Sets 18:38:46 0° 22° (NNE) 3,224 6.7 -11.4°
